Content
SEND FEEDBACK

Daily
Averages
Monthly
Summary
United States of America

MENOKEN, NORTH DAKOTA


Home > North America > United States > North Dakota
Elevation: 1710 feet     Latitude: 46 51N     Longitude: 100 33W

WEATHER
 
SELECT A DAY
Number of Records: 204,265;   Date Range: 1/1/95 - 7/22/14
 
SHARE

PRINT THIS DATA

[ ← Previous Day ]
WEATHER ALMANAC - JANUARY 23, 2013
[ Next Day → ]
[ °C ]   °F
Weather ElementAverageHighLow
Temperature3.1 °F10.9 °F (1:52 am)-2 °F (8:52 pm)
Dewpoint-4.4 °F6.1 °F (1:52 am)-9.4 °F (6:52 pm)
Humidity71 %81 % (1:52 am)66 % (10:52 am)
Barometer30.50 in30.64 in (9:52 pm)30.27 in (1:52 am)
Wind Speed9.9 mph18.4 mph (9:52 am)
Wind Gust25.3 mph (9:52 am)
Weather ElementAverage
Visibility10 mi
Wind DirectionSW (224.3 °)

Weather ElementTotal
Precipitation---
Heating Degree Days60.6 (Base 65)
Averaged from 23 records on January 23, 2013
WEATHER CONDITIONS BREAKOUT
WIND DIRECTION BREAKOUT
WEATHER BY HOUR - JANUARY 23, 2013
[ °C ]   °F
Local TimeTemperatureDewpointHumidityBarometerVisibilityWind DirectionWind SpeedGust SpeedPrecipitationEventsConditions
1:52 AM10.9 °F6.1 °F81 %30.27 in10.0 miWNW (300°)8.1 mphClear
2:52 AM10.9 °F5.0 °F77 %30.29 in10.0 miNW (320°)9.2 mphClear
3:52 AM10.0 °F3.9 °F76 %30.30 in10.0 miNNW (330°)8.1 mphClear
4:52 AM8.1 °F1.9 °F76 %30.32 in10.0 miNNW (330°)5.8 mphClear
5:52 AM7.0 °F0.0 °F73 %30.36 in10.0 miNW (310°)9.2 mphClear
6:52 AM5.0 °F-0.9 °F76 %30.40 in10.0 miNW (320°)5.8 mphClear
7:52 AM5.0 °F-2.0 °F73 %30.43 in10.0 miNNW (340°)10.4 mphClear
8:52 AM3.9 °F-2.0 °F76 %30.46 in10.0 miNorth (350°)10.4 mphClear
9:52 AM3.9 °F-4.0 °F70 %30.49 in10.0 miNNW (340°)18.4 mph25.3 mphClear
10:52 AM3.0 °F-6.0 °F66 %30.54 in10.0 miNorth (360°)12.7 mphClear
11:52 AM3.0 °F-6.0 °F66 %30.56 in10.0 miNorth (360°)11.5 mphClear
12:52 PM3.0 °F-5.1 °F69 %30.56 in10.0 miNorth (10°)8.1 mphClear
1:52 PM3.0 °F-6.0 °F66 %30.56 in10.0 miNorth (10°)9.2 mphPartly Cloudy
2:52 PM1.9 °F-7.1 °F66 %30.58 in10.0 miNorth (350°)6.9 mphClear
3:52 PM1.9 °F-7.1 °F66 %30.60 in10.0 miNorth (360°)8.1 mphClear
4:52 PM1.0 °F-8.0 °F66 %30.60 in10.0 miNE (50°)9.2 mphClear
5:52 PM-0.9 °F-9.0 °F69 %30.61 in10.0 miENE (60°)10.4 mphMostly Cloudy
6:52 PM-0.4 °F-9.4 °F66 %30.48 in10.0 miENE (70°)9.2 mphMostly Cloudy
7:52 PM-0.9 °F-9.0 °F69 %30.63 in10.0 miESE (110°)10.4 mphClear
8:52 PM-2.0 °F-9.0 °F72 %30.63 in10.0 miESE (110°)9.2 mphOvercast
9:52 PM-0.9 °F-9.0 °F69 %30.64 in10.0 miSE (130°)11.5 mphOvercast
10:52 PM-2.0 °F-9.0 °F72 %30.63 in10.0 miESE (120°)13.8 mphPartly Cloudy
11:52 PM-2.0 °F-9.0 °F72 %30.61 in10.0 miESE (120°)12.7 mphPartly Cloudy
Hourly data recorded from KBIS, located miles away from Menoken, North Dakota







STORIES FROM OUR PARTNERS